This demonstration page uses our WeatherBlox Daily Observations layout. Learn more.

Left ArrowRight Arrow

53.62937, 11.41316

Hourly Observations for June 16, 2015

Temp ( °F °C ) Dew Point ( °F °C ) Humidity (%) Winds ( mph kmh ) Pressure ( in mb ) Visibility ( mi km ) Precip ( " mm )
6:20 am 06:20 Cloudy 48 9 41 5 76 76 WSW 6 9 30.18 1022 30 48 N/A
6:50 am 06:50 Cloudy 50 10 41 5 71 71 W 7 11 30.18 1022 30 48 N/A
7:20 am 07:20 Cloudy 50 10 41 5 71 71 W 7 11 30.18 1022 30 48 N/A
7:50 am 07:50 Cloudy 50 10 41 5 71 71 W 8 13 30.18 1022 30 48 N/A
8:20 am 08:20 Cloudy 50 10 41 5 71 71 WNW 7 11 30.18 1022 30 48 N/A
8:50 am 08:50 Cloudy 52 11 39 4 62 62 WNW 8 13 30.18 1022 30 48 N/A
9:20 am 09:20 Cloudy 52 11 39 4 62 62 WNW 8 13 30.18 1022 30 48 N/A
9:50 am 09:50 Cloudy 54 12 37 3 54 54 WNW 10 17 30.18 1022 30 48 N/A
10:20 am 10:20 Cloudy 55 13 37 3 51 51 NNW 8 13 30.18 1022 30 48 N/A
10:50 am 10:50 Cloudy 55 13 39 4 55 55 NW 10 17 30.21 1023 30 48 N/A
11:20 am 11:20 Cloudy 55 13 39 4 55 55 NNW 9 15 30.21 1023 30 48 N/A
11:50 am 11:50 Cloudy 55 13 39 4 55 55 NW 8 13 30.21 1023 30 48 N/A
12:20 pm 12:20 Mostly Cloudy 55 13 39 4 55 55 WNW 10 17 30.21 1023 30 48 N/A
12:50 pm 12:50 Cloudy 55 13 41 5 59 59 NNW 7 11 30.21 1023 30 48 N/A
1:20 pm 13:20 Cloudy 55 13 39 4 55 55 WNW 8 13 30.21 1023 30 48 N/A
1:50 pm 13:50 Mostly Cloudy 57 14 39 4 51 51 WNW 7 11 30.21 1023 30 48 N/A
2:20 pm 14:20 Mostly Cloudy 57 14 41 5 55 55 W 6 9 30.21 1023 30 48 N/A
2:50 pm 14:50 Mostly Cloudy 55 13 41 5 59 59 NW 8 13 30.21 1023 30 48 N/A
3:20 pm 15:20 Mostly Cloudy 57 14 41 5 55 55 W 7 11 30.18 1022 30 48 N/A
3:50 pm 15:50 Mostly Cloudy 57 14 39 4 51 51 VRB 5 7 30.18 1022 30 48 N/A
4:20 pm 16:20 Mostly Cloudy 61 16 43 6 52 52 WNW 6 9 30.18 1022 30 48 N/A
4:50 pm 16:50 Partly Cloudy 61 16 41 5 48 48 NW 9 15 30.18 1022 30 48 N/A
5:20 pm 17:20 Partly Cloudy 61 16 41 5 48 48 WNW 9 15 30.18 1022 30 48 N/A
5:50 pm 17:50 Partly Cloudy 59 15 39 4 48 48 WNW 10 17 30.18 1022 30 48 N/A
6:20 pm 18:20 Mostly Cloudy 61 16 41 5 48 48 WNW 9 15 30.18 1022 30 48 N/A
6:50 pm 18:50 Mostly Cloudy 59 15 39 4 48 48 NNW 8 13 30.18 1022 30 48 N/A
7:20 pm 19:20 Mostly Sunny 59 15 41 5 51 51 N 8 13 30.18 1022 7 11 N/A
7:50 pm 19:50 Mostly Sunny 59 15 43 6 55 55 NNW 7 11 30.18 1022 7 11 N/A

Powered by AerisWeather